Date String (YYYY-MM-DD hh:mm:ss) UTC,Instrument flags,Ambient pressure (hPa),Sample flow (lpm),Bypass flow (lpm),Sample temperature (°C),Ambient temperature (°C),ASC tube jacket temperature (°C),LED temperature (°C),Box temperature (°C),Sample RH (%),Span deviation,Mass concentration (μg/m³),Mass concentration (μg/m³),Mass concentration (μg/m³)
DateTimeUTC,F1_M11,P_M11,Q1_M11,Q2_M11,T1_M11,T2_M11,T3_M11,T4_M11,T5_M11,U1_M11,ZSPAN_M11,X2_M11,X0_M11,X1_M11
2022-09-13 12:00:00,,0826.6,5.00,0.00,29.1,27.4,00.0,38.0,30.8,10.5,0002.7,0008.63,0012.40,0008.22
2022-09-13 12:01:00,,0826.6,5.00,0.00,29.1,27.4,00.0,37.9,30.8,10.3,0003.0,0008.63,0012.42,0008.21
2022-09-13 12:02:00,,0826.6,4.99,0.00,29.1,27.4,00.0,37.9,30.8,10.3,0003.4,0008.66,0012.42,0008.22
2022-09-13 12:03:00,,0826.6,5.00,0.00,29.0,27.3,00.0,37.9,30.7,10.3,0003.7,0008.63,0012.30,0008.23
2022-09-13 12:04:00,,0826.6,5.01,0.00,29.0,27.3,00.0,37.9,30.7,10.3,0003.4,0008.65,0012.54,0008.24
2022-09-13 12:05:00,,0826.6,5.00,0.00,29.0,27.3,00.0,37.9,30.7,10.3,0003.3,0008.65,0012.53,0008.24
2022-09-13 12:06:00,,0826.6,4.99,0.00,29.0,27.3,00.0,37.9,30.7,10.2,0002.9,0008.65,0012.56,0008.23
2022-09-13 12:07:00,,0826.6,5.00,0.00,29.0,27.3,00.0,37.9,30.7,10.2,0002.7,0008.66,0012.66,0008.24
2022-09-13 12:08:00,,0826.6,4.99,0.00,29.0,27.3,00.0,37.9,30.7,10.2,0002.7,0008.69,0012.69,0008.26
2022-09-13 12:09:00,,0826.6,5.00,0.00,29.0,27.4,00.0,37.9,30.7,10.2,0002.3,0008.68,0012.61,0008.28
2022-09-13 12:10:00,,0826.6,5.00,0.00,29.0,27.3,00.0,37.8,30.6,10.2,0002.0,0008.70,0012.72,0008.28
2022-09-13 12:11:00,,0826.6,5.00,0.00,28.9,27.3,00.0,37.8,30.6,10.2,0001.4,0008.74,0012.93,0008.29
2022-09-13 12:12:00,,0826.6,5.01,0.00,28.9,27.3,00.0,37.8,30.7,10.3,0000.5,0008.75,0013.03,0008.30
2022-09-13 12:13:00,,0826.5,5.00,0.00,28.9,27.4,00.0,37.8,30.7,10.3,-000.2,0008.75,0013.05,0008.30
2022-09-13 12:14:00,,0826.6,4.98,0.00,28.9,27.3,00.0,37.8,30.6,10.3,-000.5,0008.77,0013.05,0008.30
2022-09-13 12:15:00,,0826.5,5.00,0.00,28.9,27.3,00.0,37.8,30.6,10.4,-001.0,0008.75,0012.74,0008.28
2022-09-13 12:16:00,,0826.5,5.00,0.00,28.9,27.3,00.0,37.8,30.6,10.4,-000.7,0008.77,0013.11,0008.29
2022-09-13 12:17:00,,0826.5,5.01,0.00,28.9,27.4,00.0,37.8,30.6,10.4,-000.4,0008.78,0013.14,0008.30
2022-09-13 12:18:00,,0826.5,5.00,0.00,28.9,27.4,00.0,37.8,30.7,10.4,-000.4,0008.81,0013.19,0008.28
2022-09-13 12:19:00,,0826.5,4.99,0.00,28.9,27.4,00.0,37.8,30.7,10.4,0000.0,0008.79,0013.23,0008.27
2022-09-13 12:20:00,,0826.5,5.00,0.00,28.9,27.3,00.0,37.8,30.7,10.4,0000.3,0008.78,0013.19,0008.25
2022-09-13 12:21:00,,0826.5,5.01,0.00,28.9,27.4,00.0,37.8,30.7,10.3,0000.9,0008.77,0013.00,0008.25
2022-09-13 12:22:00,,0826.5,5.00,0.00,28.9,27.3,00.0,37.8,30.6,10.3,0002.2,0008.75,0012.83,0008.24
2022-09-13 12:23:00,,0826.5,4.99,0.00,28.9,27.3,00.0,37.8,30.6,10.4,0003.0,0008.74,0012.83,0008.23
2022-09-13 12:24:00,,0826.5,5.00,0.00,28.9,27.3,00.0,37.7,30.6,10.3,0003.1,0008.72,0014.23,0008.21
2022-09-13 12:25:00,,0826.5,5.00,0.00,28.9,27.3,00.0,37.7,30.6,10.4,0003.0,0008.70,0014.42,0008.20
2022-09-13 12:26:00,,0826.5,5.00,0.00,28.9,27.3,00.0,37.7,30.6,10.4,0003.4,0008.69,0014.04,0008.19
2022-09-13 12:27:00,,0826.5,5.00,0.00,28.8,27.3,00.0,37.7,30.6,10.4,0003.6,0008.68,0014.07,0008.17
2022-09-13 12:28:00,,0826.5,5.00,0.00,28.8,27.3,00.0,37.7,30.6,10.4,0003.4,0008.66,0014.08,0008.15
2022-09-13 12:29:00,,0826.5,4.99,0.00,28.8,27.2,00.0,37.7,30.5,10.5,0003.5,0008.63,0013.99,0008.16
2022-09-13 12:30:00,,0826.5,5.01,0.00,28.8,27.2,00.0,37.7,30.5,10.4,0003.5,0008.61,0014.41,0008.15
2022-09-13 12:31:00,,0826.5,5.00,0.00,28.8,27.2,00.0,37.7,30.5,10.4,0003.1,0008.59,0014.32,0008.14
2022-09-13 12:32:00,,0826.5,5.00,0.00,28.8,27.2,00.0,37.7,30.5,10.5,0002.6,0008.61,0014.44,0008.14
2022-09-13 12:33:00,,0826.5,5.00,0.00,28.8,27.1,00.0,37.7,30.5,10.4,0002.1,0008.65,0014.57,0008.15
2022-09-13 12:34:00,,0826.5,5.01,0.00,28.8,27.1,00.0,37.7,30.5,10.4,0002.1,0008.66,0014.81,0008.17
2022-09-13 12:35:00,,0826.5,4.98,0.00,28.8,27.1,00.0,37.7,30.5,10.5,0002.1,0008.62,0013.63,0008.15
2022-09-13 12:36:00,,0826.6,5.00,0.00,28.7,27.1,00.0,37.6,30.5,10.5,0002.5,0008.61,0013.34,0008.14
2022-09-13 12:37:00,,0826.5,5.00,0.00,28.7,27.1,00.0,37.6,30.4,10.5,0002.4,0008.60,0013.26,0008.16
2022-09-13 12:38:00,,0826.5,5.00,0.00,28.7,27.1,00.0,37.6,30.5,10.5,0001.7,0008.59,0013.09,0008.16
2022-09-13 12:39:00,,0826.5,5.00,0.00,28.7,27.2,00.0,37.6,30.5,10.4,0001.5,0008.59,0013.37,0008.16
2022-09-13 12:40:00,,0826.5,4.99,0.00,28.7,27.2,00.0,37.6,30.4,10.4,0001.5,0008.57,0013.45,0008.15
2022-09-13 12:41:00,,0826.5,5.00,0.00,28.7,27.1,00.0,37.6,30.4,10.5,0001.7,0008.54,0012.90,0008.13
2022-09-13 12:42:00,,0826.5,5.00,0.00,28.7,27.0,00.0,37.6,30.4,10.4,0001.6,0008.54,0012.98,0008.11
2022-09-13 12:43:00,,0826.5,5.00,0.00,28.7,27.0,00.0,37.6,30.3,10.5,0001.3,0008.55,0013.17,0008.10
2022-09-13 12:44:00,,0826.5,4.99,0.00,28.7,27.0,00.0,37.6,30.3,10.4,0001.2,0008.54,0013.50,0008.09
2022-09-13 12:45:00,,0826.5,5.01,0.00,28.6,27.0,00.0,37.6,30.3,10.4,0000.8,0008.55,0014.18,0008.09
2022-09-13 12:46:00,,0826.6,5.01,0.00,28.6,27.1,00.0,37.6,30.3,10.6,0000.7,0008.57,0013.90,0008.10
2022-09-13 12:47:00,,0826.5,5.01,0.00,28.6,27.1,00.0,37.5,30.3,10.5,0000.2,0008.62,0013.99,0008.13
2022-09-13 12:48:00,,0826.5,4.99,0.00,28.6,27.1,00.0,37.5,30.4,10.5,0000.1,0008.61,0013.92,0008.12
2022-09-13 12:49:00,,0826.5,5.01,0.00,28.6,27.0,00.0,37.5,30.3,10.4,0000.3,0008.59,0013.78,0008.11
2022-09-13 12:50:00,,0826.5,5.00,0.00,28.6,27.0,00.0,37.5,30.3,10.4,0000.5,0008.58,0013.50,0008.11
2022-09-13 12:51:00,,0826.5,4.99,0.00,28.6,27.0,00.0,37.5,30.3,10.3,0000.7,0008.57,0013.68,0008.11
2022-09-13 12:52:00,,0826.5,5.00,0.00,28.6,27.0,00.0,37.5,30.3,10.4,0000.1,0008.60,0013.93,0008.12
2022-09-13 12:53:00,,0826.5,5.01,0.00,28.6,27.0,00.0,37.5,30.3,10.4,-000.2,0008.63,0014.54,0008.12
2022-09-13 12:54:00,,0826.5,5.01,0.00,28.6,27.0,00.0,37.5,30.3,10.5,0000.3,0008.62,0015.33,0008.14
2022-09-13 12:55:00,,0826.5,5.01,0.00,28.6,27.0,00.0,37.5,30.3,10.6,0000.2,0008.61,0015.44,0008.16
2022-09-13 12:56:00,,0826.5,4.99,0.00,28.6,27.0,00.0,37.5,30.3,10.7,0000.4,0008.63,0014.80,0008.18
2022-09-13 12:57:00,,0826.5,5.01,0.00,28.6,26.9,00.0,37.5,30.3,10.8,0000.3,0008.63,0015.06,0008.18
2022-09-13 12:58:00,,0826.5,5.00,0.00,28.6,27.0,00.0,37.4,30.3,10.8,0000.5,0008.63,0015.51,0008.17
2022-09-13 12:59:00,,0826.5,5.00,0.00,28.6,27.0,00.0,37.4,30.3,10.7,0000.6,0008.63,0015.58,0008.18
